Year,Month,Day,Hour,Minute,Value (Times are PST for temperature in C)
2015,06,13,00,00,12.90
2015,06,13,00,01,12.80
2015,06,13,00,02,12.80
2015,06,13,00,03,12.80
2015,06,13,00,04,12.80
2015,06,13,00,05,12.70
2015,06,13,00,06,12.70
2015,06,13,00,07,12.60
2015,06,13,00,08,12.60
2015,06,13,00,09,12.50
2015,06,13,00,10,12.40
2015,06,13,00,11,12.40
2015,06,13,00,12,12.30
2015,06,13,00,13,12.30
2015,06,13,00,14,12.30
2015,06,13,00,15,12.30
2015,06,13,00,16,12.30
2015,06,13,00,17,12.20
2015,06,13,00,18,12.20
2015,06,13,00,19,12.20
2015,06,13,00,20,12.20
2015,06,13,00,21,12.10
2015,06,13,00,22,12.10
2015,06,13,00,23,12.10
2015,06,13,00,24,12.00
2015,06,13,00,25,12.00
2015,06,13,00,26,11.90
2015,06,13,00,27,11.90
2015,06,13,00,28,11.80
2015,06,13,00,29,11.80
2015,06,13,00,30,11.70
2015,06,13,00,31,11.70
2015,06,13,00,32,11.70
2015,06,13,00,33,11.70
2015,06,13,00,34,11.60
2015,06,13,00,35,11.60
2015,06,13,00,36,11.60
2015,06,13,00,37,11.50
2015,06,13,00,38,11.50
2015,06,13,00,39,11.50
2015,06,13,00,40,11.50
2015,06,13,00,41,11.50
2015,06,13,00,42,11.40
2015,06,13,00,43,11.40
2015,06,13,00,44,11.40
2015,06,13,00,45,11.40
2015,06,13,00,46,11.30
2015,06,13,00,47,11.30
2015,06,13,00,48,11.30
2015,06,13,00,49,11.20
2015,06,13,00,50,11.20
2015,06,13,00,51,11.20
2015,06,13,00,52,11.10
2015,06,13,00,53,11.10
2015,06,13,00,54,11.10
2015,06,13,00,55,11.00
2015,06,13,00,56,11.00
2015,06,13,00,57,11.00
2015,06,13,00,58,10.90
2015,06,13,00,59,10.90
2015,06,13,01,00,10.90
2015,06,13,01,01,10.90
2015,06,13,01,02,10.90
2015,06,13,01,03,10.90
2015,06,13,01,04,10.90
2015,06,13,01,05,10.90
2015,06,13,01,06,10.80
2015,06,13,01,07,10.80
2015,06,13,01,08,10.80
2015,06,13,01,09,10.80
2015,06,13,01,10,10.80
2015,06,13,01,11,10.70
2015,06,13,01,12,10.70
2015,06,13,01,13,10.70
2015,06,13,01,14,10.70
2015,06,13,01,15,10.60
2015,06,13,01,16,10.60
2015,06,13,01,17,10.60
2015,06,13,01,18,10.50
2015,06,13,01,19,10.50
2015,06,13,01,20,10.50
2015,06,13,01,21,10.40
2015,06,13,01,22,10.40
2015,06,13,01,23,10.40
2015,06,13,01,24,10.40
2015,06,13,01,25,10.30
2015,06,13,01,26,10.30
2015,06,13,01,27,10.30
2015,06,13,01,28,10.30
2015,06,13,01,29,10.30
2015,06,13,01,30,10.30
2015,06,13,01,31,10.20
2015,06,13,01,32,10.20
2015,06,13,01,33,10.20
2015,06,13,01,34,10.20
2015,06,13,01,35,10.20
2015,06,13,01,36,10.10
2015,06,13,01,37,10.10
2015,06,13,01,38,10.10
2015,06,13,01,39,10.10
2015,06,13,01,40,10.10
2015,06,13,01,41,10.10
2015,06,13,01,42,10.10
2015,06,13,01,43,10.10
2015,06,13,01,44,10.10
2015,06,13,01,45,10.10
2015,06,13,01,46,10.10
2015,06,13,01,47,10.10
2015,06,13,01,48,10.10
2015,06,13,01,49,10.10
2015,06,13,01,50,10.10
2015,06,13,01,51,10.10
2015,06,13,01,52,10.00
2015,06,13,01,53,10.00
2015,06,13,01,54,10.00
2015,06,13,01,55,10.00
2015,06,13,01,56,9.90
2015,06,13,01,57,9.90
2015,06,13,01,58,9.90
2015,06,13,01,59,9.90
2015,06,13,02,00,9.90
2015,06,13,02,01,9.90
2015,06,13,02,02,9.80
2015,06,13,02,03,9.80
2015,06,13,02,04,9.80
2015,06,13,02,05,9.80
2015,06,13,02,06,9.70
2015,06,13,02,07,9.70
2015,06,13,02,08,9.70
2015,06,13,02,09,9.60
2015,06,13,02,10,9.60
2015,06,13,02,11,9.60
2015,06,13,02,12,9.60
2015,06,13,02,13,9.50
2015,06,13,02,14,9.50
2015,06,13,02,15,9.50
2015,06,13,02,16,9.50
2015,06,13,02,17,9.50
2015,06,13,02,18,9.40
2015,06,13,02,19,9.40
2015,06,13,02,20,9.40
2015,06,13,02,21,9.40
2015,06,13,02,22,9.40
2015,06,13,02,23,9.40
2015,06,13,02,24,9.40
2015,06,13,02,25,9.40
2015,06,13,02,26,9.40
2015,06,13,02,27,9.30
2015,06,13,02,28,9.30
2015,06,13,02,29,9.30
2015,06,13,02,30,9.30
2015,06,13,02,31,9.30
2015,06,13,02,32,9.30
2015,06,13,02,33,9.30
2015,06,13,02,34,9.30
2015,06,13,02,35,9.30
2015,06,13,02,36,9.30
2015,06,13,02,37,9.30
2015,06,13,02,38,9.30
2015,06,13,02,39,9.30
2015,06,13,02,40,9.30
2015,06,13,02,41,9.30
2015,06,13,02,42,9.30
2015,06,13,02,43,9.30
2015,06,13,02,44,9.30
2015,06,13,02,45,9.30
2015,06,13,02,46,9.20
2015,06,13,02,47,9.20
2015,06,13,02,48,9.20
2015,06,13,02,49,9.20
2015,06,13,02,50,9.20
2015,06,13,02,51,9.20
2015,06,13,02,52,9.20
2015,06,13,02,53,9.20
2015,06,13,02,54,9.20
2015,06,13,02,55,9.20
2015,06,13,02,56,9.20
2015,06,13,02,57,9.20
2015,06,13,02,58,9.20
2015,06,13,02,59,9.20
2015,06,13,03,00,9.20
2015,06,13,03,01,9.20
2015,06,13,03,02,9.10
2015,06,13,03,03,9.10
2015,06,13,03,04,9.10
2015,06,13,03,05,9.10
2015,06,13,03,06,9.10
2015,06,13,03,07,9.10
2015,06,13,03,08,9.10
2015,06,13,03,09,9.10
2015,06,13,03,10,9.10
2015,06,13,03,11,9.10
2015,06,13,03,12,9.10
2015,06,13,03,13,9.20
2015,06,13,03,14,9.20
2015,06,13,03,15,9.20
2015,06,13,03,16,9.20
2015,06,13,03,17,9.20
2015,06,13,03,18,9.20
2015,06,13,03,19,9.20
2015,06,13,03,20,9.20
2015,06,13,03,21,9.20
2015,06,13,03,22,9.20
2015,06,13,03,23,9.20
2015,06,13,03,24,9.10
2015,06,13,03,25,9.10
2015,06,13,03,26,9.10
2015,06,13,03,27,9.00
2015,06,13,03,28,9.00
2015,06,13,03,29,9.00
2015,06,13,03,30,8.90
2015,06,13,03,31,8.90
2015,06,13,03,32,8.90
2015,06,13,03,33,8.90
2015,06,13,03,34,8.80
2015,06,13,03,35,8.80
2015,06,13,03,36,8.80
2015,06,13,03,37,8.80
2015,06,13,03,38,8.80
2015,06,13,03,39,8.80
2015,06,13,03,40,8.80
2015,06,13,03,41,8.70
2015,06,13,03,42,8.70
2015,06,13,03,43,8.70
2015,06,13,03,44,8.70
2015,06,13,03,45,8.70
2015,06,13,03,46,8.70
2015,06,13,03,47,8.70
2015,06,13,03,48,8.70
2015,06,13,03,49,8.70
2015,06,13,03,50,8.70
2015,06,13,03,51,8.70
2015,06,13,03,52,8.70
2015,06,13,03,53,8.70
2015,06,13,03,54,8.70
2015,06,13,03,55,8.70
2015,06,13,03,56,8.70
2015,06,13,03,57,8.70
2015,06,13,03,58,8.70
2015,06,13,03,59,8.70
2015,06,13,04,00,8.70
2015,06,13,04,01,8.70
2015,06,13,04,02,8.70
2015,06,13,04,03,8.70
2015,06,13,04,04,8.70
2015,06,13,04,05,8.60
2015,06,13,04,06,8.60
2015,06,13,04,07,8.60
2015,06,13,04,08,8.60
2015,06,13,04,09,8.60
2015,06,13,04,10,8.60
2015,06,13,04,11,8.60
2015,06,13,04,12,8.60
2015,06,13,04,13,8.60
2015,06,13,04,14,8.60
2015,06,13,04,15,8.60
2015,06,13,04,16,8.60
2015,06,13,04,17,8.60
2015,06,13,04,18,8.60
2015,06,13,04,19,8.60
2015,06,13,04,20,8.60
2015,06,13,04,21,8.60
2015,06,13,04,22,8.70
2015,06,13,04,23,8.70
2015,06,13,04,24,8.70
2015,06,13,04,25,8.70
2015,06,13,04,26,8.70
2015,06,13,04,27,8.70
2015,06,13,04,28,8.70
2015,06,13,04,29,8.60
2015,06,13,04,30,8.60
2015,06,13,04,31,8.60
2015,06,13,04,32,8.60
2015,06,13,04,33,8.60
2015,06,13,04,34,8.60
2015,06,13,04,35,8.70
2015,06,13,04,36,8.70
2015,06,13,04,37,8.70
2015,06,13,04,38,8.70
2015,06,13,04,39,8.70
2015,06,13,04,40,8.70
2015,06,13,04,41,8.60
2015,06,13,04,42,8.60
2015,06,13,04,43,8.60
2015,06,13,04,44,8.60
2015,06,13,04,45,8.60
2015,06,13,04,46,8.60
2015,06,13,04,47,8.60
2015,06,13,04,48,8.60
2015,06,13,04,49,8.50
2015,06,13,04,50,8.60
2015,06,13,04,51,8.60
2015,06,13,04,52,8.60
2015,06,13,04,53,8.60
2015,06,13,04,54,8.60
2015,06,13,04,55,8.60
2015,06,13,04,56,8.60
2015,06,13,04,57,8.60
2015,06,13,04,58,8.60
2015,06,13,04,59,8.60
2015,06,13,05,00,8.60
2015,06,13,05,01,8.60
2015,06,13,05,02,8.60
2015,06,13,05,03,8.70
2015,06,13,05,04,8.70
2015,06,13,05,05,8.70
2015,06,13,05,06,8.70
2015,06,13,05,07,8.70
2015,06,13,05,08,8.70
2015,06,13,05,09,8.70
2015,06,13,05,10,8.70
2015,06,13,05,11,8.60
2015,06,13,05,12,8.60
2015,06,13,05,13,8.60
2015,06,13,05,14,8.50
2015,06,13,05,15,8.50
2015,06,13,05,16,8.40
2015,06,13,05,17,8.40
2015,06,13,05,18,8.40
2015,06,13,05,19,8.40
2015,06,13,05,20,8.30
2015,06,13,05,21,8.30
2015,06,13,05,22,8.30
2015,06,13,05,23,8.30
2015,06,13,05,24,8.30
2015,06,13,05,25,8.30
2015,06,13,05,26,8.30
2015,06,13,05,27,8.20
2015,06,13,05,28,8.20
2015,06,13,05,29,8.20
2015,06,13,05,30,8.20
2015,06,13,05,31,8.20
2015,06,13,05,32,8.20
2015,06,13,05,33,8.20
2015,06,13,05,34,8.20
2015,06,13,05,35,8.20
2015,06,13,05,36,8.20
2015,06,13,05,37,8.20
2015,06,13,05,38,8.20
2015,06,13,05,39,8.20
2015,06,13,05,40,8.20
2015,06,13,05,41,8.20
2015,06,13,05,42,8.30
2015,06,13,05,43,8.30
2015,06,13,05,44,8.30
2015,06,13,05,45,8.30
2015,06,13,05,46,8.30
2015,06,13,05,47,8.30
2015,06,13,05,48,8.30
2015,06,13,05,49,8.30
2015,06,13,05,50,8.30
2015,06,13,05,51,8.30
2015,06,13,05,52,8.30
2015,06,13,05,53,8.30
2015,06,13,05,54,8.30
2015,06,13,05,55,8.30
2015,06,13,05,56,8.30
2015,06,13,05,57,8.30
2015,06,13,05,58,8.30
2015,06,13,05,59,8.30
2015,06,13,06,00,8.30
2015,06,13,06,01,8.30
2015,06,13,06,02,8.30
2015,06,13,06,03,8.30
2015,06,13,06,04,8.30
2015,06,13,06,05,8.40
2015,06,13,06,06,8.40
2015,06,13,06,07,8.40
2015,06,13,06,08,8.40
2015,06,13,06,09,8.40
2015,06,13,06,10,8.50
2015,06,13,06,11,8.50
2015,06,13,06,12,8.50
2015,06,13,06,13,8.50
2015,06,13,06,14,8.50
2015,06,13,06,15,8.50
2015,06,13,06,16,8.60
2015,06,13,06,17,8.60
2015,06,13,06,18,8.60
2015,06,13,06,19,8.60
2015,06,13,06,20,8.50
2015,06,13,06,21,8.60
2015,06,13,06,22,8.50
2015,06,13,06,23,8.60
2015,06,13,06,24,8.60
2015,06,13,06,25,8.50
2015,06,13,06,26,8.50
2015,06,13,06,27,8.50
2015,06,13,06,28,8.50
2015,06,13,06,29,8.60
2015,06,13,06,30,8.60
2015,06,13,06,31,8.60
2015,06,13,06,32,8.60
2015,06,13,06,33,8.60
2015,06,13,06,34,8.60
2015,06,13,06,35,8.60
2015,06,13,06,36,8.70
2015,06,13,06,37,8.70
2015,06,13,06,38,8.70
2015,06,13,06,39,8.70
2015,06,13,06,40,8.70
2015,06,13,06,41,8.80
2015,06,13,06,42,8.80
2015,06,13,06,43,8.80
2015,06,13,06,44,8.90
2015,06,13,06,45,8.90
2015,06,13,06,46,8.90
2015,06,13,06,47,9.00
2015,06,13,06,48,9.00
2015,06,13,06,49,9.10
2015,06,13,06,50,9.10
2015,06,13,06,51,9.10
2015,06,13,06,52,9.20
2015,06,13,06,53,9.20
2015,06,13,06,54,9.30
2015,06,13,06,55,9.40
2015,06,13,06,56,9.40
2015,06,13,06,57,9.50
2015,06,13,06,58,9.60
2015,06,13,06,59,9.70
2015,06,13,07,00,9.70
2015,06,13,07,01,9.80
2015,06,13,07,02,9.90
2015,06,13,07,03,10.00
2015,06,13,07,04,10.10
2015,06,13,07,05,10.10
2015,06,13,07,06,10.20
2015,06,13,07,07,10.30
2015,06,13,07,08,10.40
2015,06,13,07,09,10.40
2015,06,13,07,10,10.50
2015,06,13,07,11,10.60
2015,06,13,07,12,10.60
2015,06,13,07,13,10.70
2015,06,13,07,14,10.80
2015,06,13,07,15,10.90
2015,06,13,07,16,10.90
2015,06,13,07,17,10.90
2015,06,13,07,18,11.00
2015,06,13,07,19,11.10
2015,06,13,07,20,11.10
2015,06,13,07,21,11.10
2015,06,13,07,22,11.20
2015,06,13,07,23,11.20
2015,06,13,07,24,11.30
2015,06,13,07,25,11.30
2015,06,13,07,26,11.40
2015,06,13,07,27,11.40
2015,06,13,07,28,11.50
2015,06,13,07,29,11.50
2015,06,13,07,30,11.60
2015,06,13,07,31,11.70
2015,06,13,07,32,11.70
2015,06,13,07,33,11.80
2015,06,13,07,34,11.80
2015,06,13,07,35,11.90
2015,06,13,07,36,11.90
2015,06,13,07,37,11.90
2015,06,13,07,38,12.00
2015,06,13,07,39,12.10
2015,06,13,07,40,12.10
2015,06,13,07,41,12.20
2015,06,13,07,42,12.20
2015,06,13,07,43,12.30
2015,06,13,07,44,12.40
2015,06,13,07,45,12.50
2015,06,13,07,46,12.50
2015,06,13,07,47,12.60
2015,06,13,07,48,12.70
2015,06,13,07,49,12.70
2015,06,13,07,50,12.80
2015,06,13,07,51,12.80
2015,06,13,07,52,12.90
2015,06,13,07,53,13.00
2015,06,13,07,54,13.00
2015,06,13,07,55,13.10
2015,06,13,07,56,13.10
2015,06,13,07,57,13.20
2015,06,13,07,58,13.20
2015,06,13,07,59,13.30
2015,06,13,08,00,13.30
2015,06,13,08,01,13.40
2015,06,13,08,02,13.40
2015,06,13,08,03,13.50
2015,06,13,08,04,13.60
2015,06,13,08,05,13.60
2015,06,13,08,06,13.70
2015,06,13,08,07,13.80
2015,06,13,08,08,13.90
2015,06,13,08,09,14.10
2015,06,13,08,10,14.20
2015,06,13,08,11,14.30
2015,06,13,08,12,14.30
2015,06,13,08,13,14.40
2015,06,13,08,14,14.50
2015,06,13,08,15,14.60
2015,06,13,08,16,14.70
2015,06,13,08,17,14.80
2015,06,13,08,18,14.90
2015,06,13,08,19,15.00
2015,06,13,08,20,15.10
2015,06,13,08,21,15.20
2015,06,13,08,22,15.20
2015,06,13,08,23,15.20
2015,06,13,08,24,15.20
2015,06,13,08,25,15.30
2015,06,13,08,26,15.30
2015,06,13,08,27,15.40
2015,06,13,08,28,15.40
2015,06,13,08,29,15.50
2015,06,13,08,30,15.60
2015,06,13,08,31,15.70
2015,06,13,08,32,15.70
2015,06,13,08,33,15.80
2015,06,13,08,34,15.80
2015,06,13,08,35,15.90
2015,06,13,08,36,15.90
2015,06,13,08,37,15.90
2015,06,13,08,38,15.90
2015,06,13,08,39,16.00
2015,06,13,08,40,16.00
2015,06,13,08,41,16.10
2015,06,13,08,42,16.20
2015,06,13,08,43,16.20
2015,06,13,08,44,16.30
2015,06,13,08,45,16.30
2015,06,13,08,46,16.30
2015,06,13,08,47,16.30
2015,06,13,08,48,16.30
2015,06,13,08,49,16.30
2015,06,13,08,50,16.30
2015,06,13,08,51,16.30
2015,06,13,08,52,16.20
2015,06,13,08,53,16.20
2015,06,13,08,54,16.10
2015,06,13,08,55,16.20
2015,06,13,08,56,16.20
2015,06,13,08,57,16.20
2015,06,13,08,58,16.20
2015,06,13,08,59,16.20
2015,06,13,09,00,16.20
2015,06,13,09,01,16.10
2015,06,13,09,02,16.10
2015,06,13,09,03,16.10
2015,06,13,09,04,16.10
2015,06,13,09,05,16.10
2015,06,13,09,06,16.10
2015,06,13,09,07,16.10
2015,06,13,09,08,16.10
2015,06,13,09,09,16.10
2015,06,13,09,10,16.20
2015,06,13,09,11,16.20
2015,06,13,09,12,16.20
2015,06,13,09,13,16.20
2015,06,13,09,14,16.30
2015,06,13,09,15,16.30
2015,06,13,09,16,16.30
2015,06,13,09,17,16.20
2015,06,13,09,18,16.20
2015,06,13,09,19,16.20
2015,06,13,09,20,16.10
2015,06,13,09,21,16.10
2015,06,13,09,22,16.10
2015,06,13,09,23,16.10
2015,06,13,09,24,16.10
2015,06,13,09,25,16.10
2015,06,13,09,26,16.10
2015,06,13,09,27,16.10
2015,06,13,09,28,16.10
2015,06,13,09,29,16.10
2015,06,13,09,30,16.10
2015,06,13,09,31,16.20
2015,06,13,09,32,16.20
2015,06,13,09,33,16.30
2015,06,13,09,34,16.30
2015,06,13,09,35,16.30
2015,06,13,09,36,16.30
2015,06,13,09,37,16.30
2015,06,13,09,38,16.30
2015,06,13,09,39,16.30
2015,06,13,09,40,16.30
2015,06,13,09,41,16.30
2015,06,13,09,42,16.30
2015,06,13,09,43,16.30
2015,06,13,09,44,16.40
2015,06,13,09,45,16.40
2015,06,13,09,46,16.40
2015,06,13,09,47,16.40
2015,06,13,09,48,16.50
2015,06,13,09,49,16.50
2015,06,13,09,50,16.50
2015,06,13,09,51,16.60
2015,06,13,09,52,16.70
2015,06,13,09,53,16.70
2015,06,13,09,54,16.80
2015,06,13,09,55,16.80
2015,06,13,09,56,16.80
2015,06,13,09,57,16.80
2015,06,13,09,58,16.80
2015,06,13,09,59,16.90
2015,06,13,10,00,16.80
2015,06,13,10,01,16.90
2015,06,13,10,02,16.90
2015,06,13,10,03,16.90
2015,06,13,10,04,17.00
2015,06,13,10,05,17.00
2015,06,13,10,06,17.10
2015,06,13,10,07,17.20
2015,06,13,10,08,17.20
2015,06,13,10,09,17.30
2015,06,13,10,10,17.40
2015,06,13,10,11,17.50
2015,06,13,10,12,17.60
2015,06,13,10,13,17.70
2015,06,13,10,14,17.70
2015,06,13,10,15,17.70
2015,06,13,10,16,17.80
2015,06,13,10,17,17.80
2015,06,13,10,18,17.70
2015,06,13,10,19,17.60
2015,06,13,10,20,17.50
2015,06,13,10,21,17.40
2015,06,13,10,22,17.40
2015,06,13,10,23,17.40
2015,06,13,10,24,17.50
2015,06,13,10,25,17.50
2015,06,13,10,26,17.40
2015,06,13,10,27,17.40
2015,06,13,10,28,17.40
2015,06,13,10,29,17.30
2015,06,13,10,30,17.40
2015,06,13,10,31,17.40
2015,06,13,10,32,17.40
2015,06,13,10,33,17.30
2015,06,13,10,34,17.30
2015,06,13,10,35,17.20
2015,06,13,10,36,17.10
2015,06,13,10,37,17.10
2015,06,13,10,38,17.10
2015,06,13,10,39,17.10
2015,06,13,10,40,17.20
2015,06,13,10,41,17.20
2015,06,13,10,42,17.20
2015,06,13,10,43,17.10
2015,06,13,10,44,17.10
2015,06,13,10,45,17.00
2015,06,13,10,46,17.00
2015,06,13,10,47,17.00
2015,06,13,10,48,17.00
2015,06,13,10,49,17.00
2015,06,13,10,50,17.10
2015,06,13,10,51,17.10
2015,06,13,10,52,17.20
2015,06,13,10,53,17.30
2015,06,13,10,54,17.30
2015,06,13,10,55,17.40
2015,06,13,10,56,17.50
2015,06,13,10,57,17.60
2015,06,13,10,58,17.80
2015,06,13,10,59,17.90
2015,06,13,11,00,17.90
2015,06,13,11,01,17.90
2015,06,13,11,02,17.90
2015,06,13,11,03,17.80
2015,06,13,11,04,17.80
2015,06,13,11,05,17.70
2015,06,13,11,06,17.70
2015,06,13,11,07,17.70
2015,06,13,11,08,17.70
2015,06,13,11,09,17.60
2015,06,13,11,10,17.60
2015,06,13,11,11,17.60
2015,06,13,11,12,17.50
2015,06,13,11,13,17.50
2015,06,13,11,14,17.40
2015,06,13,11,15,17.40
2015,06,13,11,16,17.30
2015,06,13,11,17,17.30
2015,06,13,11,18,17.30
2015,06,13,11,19,17.30
2015,06,13,11,20,17.30
2015,06,13,11,21,17.30
2015,06,13,11,22,17.30
2015,06,13,11,23,17.30
2015,06,13,11,24,17.20
2015,06,13,11,25,17.10
2015,06,13,11,26,16.90
2015,06,13,11,27,16.80
2015,06,13,11,28,16.80
2015,06,13,11,29,16.80
2015,06,13,11,30,16.80
2015,06,13,11,31,16.80
2015,06,13,11,32,16.90
2015,06,13,11,33,17.00
2015,06,13,11,34,17.10
2015,06,13,11,35,17.20
2015,06,13,11,36,17.30
2015,06,13,11,37,17.40
2015,06,13,11,38,17.50
2015,06,13,11,39,17.70
2015,06,13,11,40,17.80
2015,06,13,11,41,17.90
2015,06,13,11,42,18.00
2015,06,13,11,43,18.00
2015,06,13,11,44,18.10
2015,06,13,11,45,18.10
2015,06,13,11,46,18.10
2015,06,13,11,47,18.10
2015,06,13,11,48,18.10
2015,06,13,11,49,18.10
2015,06,13,11,50,18.10
2015,06,13,11,51,18.20
2015,06,13,11,52,18.30
2015,06,13,11,53,18.30
2015,06,13,11,54,18.30
2015,06,13,11,55,18.40
2015,06,13,11,56,18.40
2015,06,13,11,57,18.60
2015,06,13,11,58,18.70
2015,06,13,11,59,18.80
2015,06,13,12,00,18.90
2015,06,13,12,01,19.00
2015,06,13,12,02,19.00
2015,06,13,12,03,18.90
2015,06,13,12,04,18.90
2015,06,13,12,05,18.90
2015,06,13,12,06,18.90
2015,06,13,12,07,18.90
2015,06,13,12,08,18.90
2015,06,13,12,09,18.90
2015,06,13,12,10,18.90
2015,06,13,12,11,19.00
2015,06,13,12,12,19.00
2015,06,13,12,13,19.10
2015,06,13,12,14,19.20
2015,06,13,12,15,19.20
2015,06,13,12,16,19.20
2015,06,13,12,17,19.30
2015,06,13,12,18,19.30
2015,06,13,12,19,19.40
2015,06,13,12,20,19.50
2015,06,13,12,21,19.60
2015,06,13,12,22,19.70
2015,06,13,12,23,19.70
2015,06,13,12,24,19.70
2015,06,13,12,25,19.70
2015,06,13,12,26,19.70
2015,06,13,12,27,19.80
2015,06,13,12,28,19.80
2015,06,13,12,29,19.80
2015,06,13,12,30,19.70
2015,06,13,12,31,19.70
2015,06,13,12,32,19.70
2015,06,13,12,33,19.80
2015,06,13,12,34,19.70
2015,06,13,12,35,19.70
2015,06,13,12,36,19.60
2015,06,13,12,37,19.70
2015,06,13,12,38,19.60
2015,06,13,12,39,19.60
2015,06,13,12,40,19.50
2015,06,13,12,41,19.50
2015,06,13,12,42,19.40
2015,06,13,12,43,19.40
2015,06,13,12,44,19.30
2015,06,13,12,45,19.30
2015,06,13,12,46,19.20
2015,06,13,12,47,19.20
2015,06,13,12,48,19.10
2015,06,13,12,49,19.00
2015,06,13,12,50,18.90
2015,06,13,12,51,18.90
2015,06,13,12,52,18.90
2015,06,13,12,53,19.00
2015,06,13,12,54,19.00
2015,06,13,12,55,19.10
2015,06,13,12,56,19.10
2015,06,13,12,57,19.00
2015,06,13,12,58,19.00
2015,06,13,12,59,18.90
2015,06,13,13,00,18.90
2015,06,13,13,01,18.90
2015,06,13,13,02,18.90
2015,06,13,13,03,19.00
2015,06,13,13,04,19.10
2015,06,13,13,05,19.10
2015,06,13,13,06,19.20
2015,06,13,13,07,19.30
2015,06,13,13,08,19.40
2015,06,13,13,09,19.60
2015,06,13,13,10,19.70
2015,06,13,13,11,19.80
2015,06,13,13,12,19.80
2015,06,13,13,13,19.80
2015,06,13,13,14,19.80
2015,06,13,13,15,19.80
2015,06,13,13,16,19.70
2015,06,13,13,17,19.70
2015,06,13,13,18,19.70
2015,06,13,13,19,19.60
2015,06,13,13,20,19.60
2015,06,13,13,21,19.60
2015,06,13,13,22,19.70
2015,06,13,13,23,19.80
2015,06,13,13,24,19.80
2015,06,13,13,25,19.90
2015,06,13,13,26,19.90
2015,06,13,13,27,19.90
2015,06,13,13,28,19.90
2015,06,13,13,29,19.90
2015,06,13,13,30,19.90
2015,06,13,13,31,19.90
2015,06,13,13,32,19.90
2015,06,13,13,33,19.90
2015,06,13,13,34,19.90
2015,06,13,13,35,19.90
2015,06,13,13,36,19.90
2015,06,13,13,37,19.90
2015,06,13,13,38,19.90
2015,06,13,13,39,19.80
2015,06,13,13,40,19.80
2015,06,13,13,41,19.90
2015,06,13,13,42,20.00
2015,06,13,13,43,20.10
2015,06,13,13,44,20.20
2015,06,13,13,45,20.30
2015,06,13,13,46,20.40
2015,06,13,13,47,20.40
2015,06,13,13,48,20.40
2015,06,13,13,49,20.40
2015,06,13,13,50,20.40
2015,06,13,13,51,20.30
2015,06,13,13,52,20.30
2015,06,13,13,53,20.20
2015,06,13,13,54,20.20
2015,06,13,13,55,20.20
2015,06,13,13,56,20.10
2015,06,13,13,57,20.10
2015,06,13,13,58,20.10
2015,06,13,13,59,20.20
2015,06,13,14,00,20.20
2015,06,13,14,01,20.30
2015,06,13,14,02,20.40
2015,06,13,14,03,20.60
2015,06,13,14,04,20.70
2015,06,13,14,05,20.80
2015,06,13,14,06,20.90
2015,06,13,14,07,20.90
2015,06,13,14,08,20.90
2015,06,13,14,09,20.90
2015,06,13,14,10,20.90
2015,06,13,14,11,21.00
2015,06,13,14,12,21.00
2015,06,13,14,13,21.10
2015,06,13,14,14,21.20
2015,06,13,14,15,21.30
2015,06,13,14,16,21.30
2015,06,13,14,17,21.40
2015,06,13,14,18,21.40
2015,06,13,14,19,21.40
2015,06,13,14,20,21.40
2015,06,13,14,21,21.30
2015,06,13,14,22,21.30
2015,06,13,14,23,21.30
2015,06,13,14,24,21.30
2015,06,13,14,25,21.40
2015,06,13,14,26,21.50
2015,06,13,14,27,21.60
2015,06,13,14,28,21.60
2015,06,13,14,29,21.60
2015,06,13,14,30,21.60
2015,06,13,14,31,21.70
2015,06,13,14,32,21.80
2015,06,13,14,33,21.90
2015,06,13,14,34,21.90
2015,06,13,14,35,22.00
2015,06,13,14,36,21.90
2015,06,13,14,37,21.90
2015,06,13,14,38,21.80
2015,06,13,14,39,21.80
2015,06,13,14,40,21.70
2015,06,13,14,41,21.60
2015,06,13,14,42,21.50
2015,06,13,14,43,21.50
2015,06,13,14,44,21.40
2015,06,13,14,45,21.50
2015,06,13,14,46,21.60
2015,06,13,14,47,21.70
2015,06,13,14,48,21.80
2015,06,13,14,49,21.70
2015,06,13,14,50,21.70
2015,06,13,14,51,21.80
2015,06,13,14,52,21.90
2015,06,13,14,53,22.00
2015,06,13,14,54,22.10
2015,06,13,14,55,22.10
2015,06,13,14,56,22.20
2015,06,13,14,57,22.10
2015,06,13,14,58,22.00
2015,06,13,14,59,22.00
2015,06,13,15,00,21.90
2015,06,13,15,01,21.90
2015,06,13,15,02,21.80
2015,06,13,15,03,21.70
2015,06,13,15,04,21.60
2015,06,13,15,05,21.50
2015,06,13,15,06,21.50
2015,06,13,15,07,21.50
2015,06,13,15,08,21.50
2015,06,13,15,09,21.60
2015,06,13,15,10,21.60
2015,06,13,15,11,21.60
2015,06,13,15,12,21.50
2015,06,13,15,13,21.40
2015,06,13,15,14,21.20
2015,06,13,15,15,21.10
2015,06,13,15,16,21.10
2015,06,13,15,17,21.10
2015,06,13,15,18,21.00
2015,06,13,15,19,21.00
2015,06,13,15,20,20.90
2015,06,13,15,21,20.80
2015,06,13,15,22,20.60
2015,06,13,15,23,20.50
2015,06,13,15,24,20.50
2015,06,13,15,25,20.40
2015,06,13,15,26,20.40
2015,06,13,15,27,20.50
2015,06,13,15,28,20.50
2015,06,13,15,29,20.60
2015,06,13,15,30,20.60
2015,06,13,15,31,20.70
2015,06,13,15,32,20.70
2015,06,13,15,33,20.80
2015,06,13,15,34,20.90
2015,06,13,15,35,20.90
2015,06,13,15,36,21.00
2015,06,13,15,37,21.10
2015,06,13,15,38,21.20
2015,06,13,15,39,21.40
2015,06,13,15,40,21.50
2015,06,13,15,41,21.70
2015,06,13,15,42,21.80
2015,06,13,15,43,21.80
2015,06,13,15,44,21.70
2015,06,13,15,45,21.70
2015,06,13,15,46,21.70
2015,06,13,15,47,21.70
2015,06,13,15,48,21.70
2015,06,13,15,49,21.70
2015,06,13,15,50,21.60
2015,06,13,15,51,21.60
2015,06,13,15,52,21.50
2015,06,13,15,53,21.50
2015,06,13,15,54,21.50
2015,06,13,15,55,21.50
2015,06,13,15,56,21.40
2015,06,13,15,57,21.30
2015,06,13,15,58,21.30
2015,06,13,15,59,21.20
2015,06,13,16,00,21.20
2015,06,13,16,01,21.20
2015,06,13,16,02,21.10
2015,06,13,16,03,21.00
2015,06,13,16,04,20.90
2015,06,13,16,05,20.80
2015,06,13,16,06,20.60
2015,06,13,16,07,20.60
2015,06,13,16,08,20.50
2015,06,13,16,09,20.50
2015,06,13,16,10,20.50
2015,06,13,16,11,20.50
2015,06,13,16,12,20.60
2015,06,13,16,13,20.50
2015,06,13,16,14,20.40
2015,06,13,16,15,20.20
2015,06,13,16,16,20.20
2015,06,13,16,17,20.00
2015,06,13,16,18,19.90
2015,06,13,16,19,19.80
2015,06,13,16,20,19.70
2015,06,13,16,21,19.70
2015,06,13,16,22,19.60
2015,06,13,16,23,19.40
2015,06,13,16,24,19.30
2015,06,13,16,25,19.10
2015,06,13,16,26,19.00
2015,06,13,16,27,18.90
2015,06,13,16,28,18.90
2015,06,13,16,29,19.00
2015,06,13,16,30,19.00
2015,06,13,16,31,19.00
2015,06,13,16,32,19.00
2015,06,13,16,33,18.90
2015,06,13,16,34,18.80
2015,06,13,16,35,18.80
2015,06,13,16,36,18.70
2015,06,13,16,37,18.70
2015,06,13,16,38,18.70
2015,06,13,16,39,18.60
2015,06,13,16,40,18.60
2015,06,13,16,41,18.60
2015,06,13,16,42,18.70
2015,06,13,16,43,18.70
2015,06,13,16,44,18.80
2015,06,13,16,45,18.80
2015,06,13,16,46,18.80
2015,06,13,16,47,18.90
2015,06,13,16,48,18.90
2015,06,13,16,49,18.90
2015,06,13,16,50,18.90
2015,06,13,16,51,18.80
2015,06,13,16,52,18.80
2015,06,13,16,53,18.70
2015,06,13,16,54,18.70
2015,06,13,16,55,18.70
2015,06,13,16,56,18.70
2015,06,13,16,57,18.70
2015,06,13,16,58,18.70
2015,06,13,16,59,18.70
2015,06,13,17,00,18.70
2015,06,13,17,01,18.70
2015,06,13,17,02,18.70
2015,06,13,17,03,18.70
2015,06,13,17,04,18.70
2015,06,13,17,05,18.70
2015,06,13,17,06,18.70
2015,06,13,17,07,18.80
2015,06,13,17,08,18.80
2015,06,13,17,09,18.80
2015,06,13,17,10,18.90
2015,06,13,17,11,18.90
2015,06,13,17,12,18.90
2015,06,13,17,13,18.90
2015,06,13,17,14,18.90
2015,06,13,17,15,18.90
2015,06,13,17,16,19.00
2015,06,13,17,17,19.00
2015,06,13,17,18,19.00
2015,06,13,17,19,19.00
2015,06,13,17,20,19.00
2015,06,13,17,21,18.90
2015,06,13,17,22,18.90
2015,06,13,17,23,18.90
2015,06,13,17,24,19.00
2015,06,13,17,25,19.00
2015,06,13,17,26,19.00
2015,06,13,17,27,19.00
2015,06,13,17,28,19.00
2015,06,13,17,29,19.00
2015,06,13,17,30,19.10
2015,06,13,17,31,19.10
2015,06,13,17,32,19.10